GEFSMW_500_meanwind_024.txt.gz
Wind_Speed
39 39 38 36 35 34 33 33 35 37 37 37 38 39 42 43 43 42 39 36 33 31 30 29 29 29 30 30 32 34 34 34 37 37 35 34 35 34 34 33 33 32 31
38 39 38 38 36 35 34 35 36 37 38 38 38 41 43 45 45 44 43 40 37 35 32 31 31 32 32 33 35 37 37 37 40 41 41 37 36 37 37 36 35 34 33
35 37 39 37 35 34 34 35 36 38 40 41 42 42 43 44 44 43 42 39 36 33 31 31 31 32 32 34 36 38 40 41 41 43 44 43 38 38 38 38 37 36 35
37 39 38 36 35 35 36 37 38 39 41 42 43 43 42 42 41 38 37 36 34 32 30 30 30 31 33 35 37 40 42 43 43 44 44 45 43 40 38 38 38 37 36
41 42 42 42 42 42 42 42 42 42 43 43 43 42 40 39 38 36 35 34 32 30 30 31 31 33 35 37 39 41 43 44 45 44 44 44 43 42 39 36 37 37 36
47 48 48 48 49 49 49 48 47 46 45 45 43 40 39 37 35 33 33 32 32 31 32 33 35 36 38 39 41 42 43 43 43 43 42 42 41 39 38 36 35 36 36
52 54 55 55 55 56 56 55 54 51 50 49 47 42 39 36 33 32 32 33 33 34 35 37 38 40 40 41 41 41 40 39 39 38 38 37 37 36 35 35 34 36 37
50 54 56 58 58 59 59 58 57 54 54 50 45 42 40 38 35 35 34 34 35 37 38 40 40 41 41 40 38 36 35 34 33 32 32 32 32 32 33 33 34 35 36
46 50 54 57 58 59 59 58 55 54 50 48 44 43 41 39 37 36 35 36 37 38 39 39 39 38 37 36 33 32 30 29 28 28 28 28 29 31 32 33 34 36 36
44 47 51 54 56 57 58 57 55 53 51 47 43 42 40 37 36 36 36 36 37 37 38 36 35 34 33 32 30 29 27 27 27 26 26 27 27 28 30 32 32 34 35
43 45 48 50 52 53 53 53 52 50 47 45 40 39 39 36 34 35 35 35 36 36 35 33 32 32 31 30 29 28 27 26 26 26 26 26 25 26 27 29 31 33 34
41 42 44 45 45 44 44 44 45 44 42 42 39 37 36 35 34 36 36 35 35 34 33 32 32 32 31 30 29 28 28 27 27 27 26 26 26 26 25 27 27 28 31
40 40 40 39 37 35 34 34 36 36 35 35 35 34 32 32 32 34 34 33 33 33 32 32 31 31 30 29 29 28 28 28 28 28 28 27 27 27 25 25 25 24 25
38 36 33 30 27 25 25 26 28 29 30 30 30 30 30 30 31 32 33 32 32 32 31 31 31 30 29 29 28 28 28 28 28 27 28 28 28 28 27 26 25 23 21
34 30 27 22 20 19 18 21 23 25 26 27 26 26 27 28 29 30 31 31 30 30 30 30 29 29 29 28 28 27 27 28 28 28 28 28 29 29 29 29 28 26 24
29 25 22 20 17 16 18 19 20 21 23 24 24 25 26 27 28 28 29 28 28 28 29 29 28 28 27 27 27 27 27 27 28 28 28 29 29 30 31 31 30 29 28
25 22 20 18 17 16 15 16 18 20 21 22 23 24 25 26 27 27 27 27 27 27 27 27 26 26 25 25 25 25 26 26 27 27 27 28 28 29 31 31 32 32 32
21 19 17 16 16 15 15 15 17 18 20 20 21 22 23 24 25 25 24 25 24 24 24 23 23 23 22 23 23 23 24 24 24 25 25 26 27 28 29 30 31 32 33
19 17 15 14 14 14 14 14 15 16 17 18 18 19 20 21 21 21 21 21 20 20 19 18 18 19 20 21 21 21 21 21 21 21 22 23 23 25 26 28 29 31 32
16 15 14 13 12 12 12 12 12 13 14 14 15 16 17 17 17 17 16 16 15 15 15 16 17 17 18 18 18 18 18 18 18 18 19 19 20 22 23 24 26 27 28
15 14 13 12 11 10 10 10 10 11 12 12 12 13 13 13 13 12 12 12 12 13 13 14 14 14 14 14 14 15 15 16 17 18 19 20 21 22 23 25 26 27 28
13 13 12 11 10 9 9 9 9 9 10 9 9 10 10 10 10 10 10 11 11 11 12 12 12 11 12 13 14 15 16 17 18 20 21 22 24 25 26 27 28 29 30
13 13 12 11 10 9 9 8 8 8 7 7 7 8 8 9 10 10 10 11 11 11 11 11 11 12 13 14 15 16 17 18 20 21 23 24 26 27 27 28 29 30 30
15 14 13 12 11 10 9 9 8 7 7 6 6 6 7 8 9 10 10 11 12 12 12 12 13 13 14 15 16 17 17 19 20 22 23 23 24 25 26 26 27 28 29
18 17 15 13 12 12 11 9 9 8 7 7 7 7 7 8 9 10 11 12 12 13 13 13 13 14 15 15 16 16 17 19 20 21 22 22 23 24 24 25 25 26 27
21 20 19 17 16 15 13 12 11 10 9 9 9 9 9 10 10 11 12 12 13 13 14 14 14 15 15 16 16 17 18 19 20 21 22 23 24 25 26 26 26 26 26

GEFSMW_500_meanwind_030.txt.gz
Wind_Speed
44 44 45 46 46 46 46 46 46 46 46 46 46 47 46 44 44 43 43 45 46 46 46 46 45 45 42 40 39 38 37 37 36 35 35 34 34 34 35 37 37 37 36
41 41 42 43 44 45 46 46 46 47 48 48 48 49 46 44 45 45 45 46 47 48 48 48 48 46 44 42 42 40 38 37 37 37 37 35 35 37 37 38 39 39 39
38 38 39 40 41 42 43 44 45 46 48 49 49 49 48 46 46 46 46 46 45 47 49 48 48 47 45 43 42 41 39 38 37 38 38 37 37 38 38 39 40 40 40
38 38 38 39 40 41 42 44 45 46 47 48 48 48 46 46 45 47 48 48 47 46 46 47 47 46 42 39 38 37 36 35 36 36 38 39 39 39 38 37 39 39 40
39 39 40 40 41 42 43 44 45 46 47 48 49 49 49 50 49 50 49 49 47 46 46 44 43 41 38 36 35 34 34 34 35 36 37 38 38 39 38 36 36 37 38
35 36 38 39 40 41 43 44 45 47 48 49 51 51 52 53 53 52 50 50 49 48 45 44 40 35 34 33 32 33 33 34 35 36 36 37 37 36 36 35 33 33 35
30 31 33 35 37 39 41 43 45 47 49 50 52 53 54 55 55 53 51 50 48 46 44 43 38 33 32 31 31 31 32 33 34 35 35 35 34 34 33 32 31 31 32
27 28 30 32 35 37 40 42 45 47 49 52 53 54 54 54 54 52 50 48 47 44 42 40 36 32 31 30 30 31 32 33 33 33 33 32 32 31 31 31 30 30 31
28 29 30 32 34 36 39 41 44 47 49 52 54 54 55 54 53 51 49 46 44 42 41 39 37 33 31 30 30 31 31 31 31 31 30 31 31 31 30 30 30 30 31
30 31 32 33 35 37 39 41 42 44 47 49 51 52 52 52 52 50 49 47 44 42 40 39 36 33 31 31 31 31 31 30 30 29 29 30 31 31 31 31 31 31 32
31 32 33 34 36 37 38 39 40 41 42 43 44 45 45 45 46 46 45 43 41 40 38 36 34 32 31 31 31 30 30 29 29 29 30 31 32 32 32 33 33 33 33
32 33 33 34 35 36 37 37 38 38 37 37 37 36 37 37 38 39 39 39 39 38 37 34 32 32 31 31 30 29 28 28 29 30 31 32 32 33 34 34 35 35 34
32 33 33 33 34 34 34 33 33 33 31 30 30 30 30 31 32 32 34 35 35 35 34 31 30 30 29 29 28 28 28 28 29 30 31 32 33 34 34 35 36 36 35
32 32 32 32 32 31 31 30 29 28 26 25 24 24 24 25 27 28 31 32 31 30 29 28 28 27 26 26 26 27 27 28 29 30 31 32 33 34 35 35 36 36 36
31 31 30 29 29 28 27 26 25 24 23 22 20 19 20 20 21 22 23 24 24 25 25 26 26 25 25 25 25 26 27 27 28 29 30 31 33 33 34 35 35 36 36
30 28 27 27 26 25 24 23 22 20 19 18 18 17 16 16 16 18 19 19 20 21 21 22 22 22 23 23 24 24 25 26 27 28 29 30 31 32 33 34 34 34 35
28 26 25 25 24 23 22 20 19 18 17 17 16 15 15 15 16 16 15 15 16 17 17 18 18 19 20 20 21 21 22 23 24 25 26 28 29 30 30 31 32 32 33
26 25 24 23 22 21 20 18 18 17 15 14 13 13 13 13 13 12 12 11 12 13 13 14 15 16 17 17 18 18 19 20 22 23 24 25 25 26 27 28 28 29 30
26 25 24 23 21 20 18 17 16 15 14 12 11 11 10 10 11 11 11 11 11 12 12 13 13 13 14 14 14 15 17 18 19 20 20 21 22 23 24 25 26 27 28
27 25 24 22 20 18 17 15 14 13 12 11 11 10 10 10 11 11 11 11 11 11 11 12 12 12 12 12 13 14 14 15 15 16 17 18 20 21 23 24 26 27 28
27 26 24 22 20 18 16 14 13 12 11 11 10 10 10 10 11 11 10 10 11 11 11 11 11 11 11 11 11 12 12 13 14 15 17 18 20 22 23 25 27 29 30
27 26 24 23 21 19 17 15 13 12 11 10 10 10 9 10 10 9 10 10 10 11 10 10 10 10 10 10 11 11 13 14 15 16 17 18 20 22 23 25 26 27 28
27 26 26 24 23 21 18 16 14 13 12 11 10 9 8 8 9 9 10 11 11 10 10 10 10 10 11 11 12 12 13 14 15 16 17 18 20 21 23 23 24 25 25
28 27 27 26 24 22 20 17 15 14 13 12 11 10 9 8 9 9 10 10 11 11 11 11 11 11 12 13 13 13 14 15 15 16 17 18 20 21 23 24 24 24 24
29 27 27 27 26 25 23 20 18 16 14 13 12 11 11 10 10 10 10 11 12 12 12 12 13 13 14 14 14 14 15 15 15 16 17 18 20 21 23 24 24 24 24
30 28 28 28 27 27 25 23 21 18 17 16 15 14 13 12 12 12 12 12 12 13 13 13 14 14 14 15 15 15 15 15 15 15 16 18 20 21 23 24 24 25 25

GEFSMW_500_meanwind_036.txt.gz
Wind_Speed
42 42 43 44 45 45 45 45 45 45 45 44 43 43 43 43 43 44 45 46 47 47 46 48 49 50 50 48 45 44 44 45 44 42 41 40 39 38 37 37 37 37 37
38 39 39 39 40 41 41 41 42 42 42 42 42 42 42 42 43 44 45 46 47 47 48 48 49 50 49 48 46 45 46 45 43 42 41 41 39 39 38 38 38 38 37
38 38 39 39 39 40 40 40 40 41 42 42 42 42 43 43 43 44 45 46 47 49 49 49 49 49 48 46 45 44 44 44 44 44 43 41 39 38 37 38 38 37 36
37 38 39 39 40 40 40 40 41 41 42 43 43 44 44 44 45 46 48 48 49 50 50 47 48 48 46 45 44 44 43 42 42 41 41 40 38 37 35 36 37 36 35
36 36 36 37 37 38 39 39 40 41 42 43 44 45 46 47 47 48 50 50 51 51 50 48 48 48 47 46 44 44 42 41 39 39 40 40 38 37 35 34 34 35 34
37 35 34 34 35 36 37 38 38 40 41 43 44 46 47 48 49 50 51 52 52 52 52 51 51 49 48 46 44 42 40 39 37 37 38 38 37 37 36 34 33 32 33
35 33 32 32 33 33 34 35 36 38 39 41 43 45 47 48 49 51 52 53 53 53 53 52 52 50 48 46 44 41 39 38 36 35 35 35 35 35 35 34 31 30 30
36 35 34 33 33 34 34 35 36 37 39 41 42 44 46 48 50 51 53 54 54 53 53 53 52 51 49 46 44 42 39 38 36 35 34 34 33 33 32 31 29 28 29
38 38 37 36 36 36 37 37 37 38 40 41 43 45 47 48 50 51 52 53 53 53 52 52 50 49 48 45 44 42 39 37 36 34 33 32 31 30 29 29 29 28 28
40 41 41 40 38 38 39 39 40 40 41 42 43 44 45 46 47 48 50 50 50 50 49 47 47 46 45 43 42 41 39 36 35 34 32 30 29 28 28 28 28 28 28
42 41 43 43 42 41 41 41 41 41 41 42 42 43 44 44 45 45 45 45 46 45 44 43 42 41 40 40 39 37 36 34 32 30 29 28 28 28 28 28 27 28 28
42 41 41 42 42 42 41 41 41 41 41 41 41 42 41 42 41 41 40 40 39 39 38 38 37 37 37 37 36 35 34 32 30 28 28 27 27 27 27 28 28 29 29
41 41 40 39 39 40 40 40 39 39 39 39 39 38 37 37 35 35 34 33 32 31 32 31 32 32 32 33 33 33 32 30 28 27 27 26 26 27 27 28 28 29 30
39 40 39 37 37 37 38 37 37 36 36 35 35 33 32 32 32 31 30 29 27 26 27 29 29 30 29 30 31 30 29 26 25 24 24 25 25 25 26 26 27 28 29
38 39 38 37 36 35 35 34 34 34 33 32 31 30 29 28 27 25 24 22 21 21 21 22 24 26 26 26 26 25 23 21 21 22 22 22 22 22 23 24 25 27 28
39 38 38 38 36 34 33 33 32 32 31 30 29 28 26 24 23 21 19 18 17 17 16 16 18 19 19 20 20 19 18 18 18 19 19 19 19 20 21 22 23 24 25
39 38 38 37 37 35 33 32 32 30 29 28 26 25 23 22 20 18 16 15 14 13 11 11 12 14 14 15 16 16 16 16 16 16 16 17 17 18 18 19 19 20 22
41 40 39 39 37 36 34 32 31 30 27 26 24 23 21 20 19 17 14 13 11 10 9 9 10 11 12 13 14 14 14 13 13 13 14 14 13 14 14 16 17 19 21
44 42 41 39 38 36 34 33 31 29 27 25 23 21 19 18 17 15 13 11 10 9 8 8 8 8 9 10 10 10 11 11 11 10 10 10 11 11 13 14 16 18 21
46 44 43 40 37 36 34 33 31 28 27 25 22 21 19 17 16 14 13 12 10 9 8 8 8 8 8 8 9 9 9 8 8 7 8 8 10 11 12 14 16 19 22
46 45 44 41 37 36 34 33 31 29 26 23 22 20 19 17 16 14 13 12 11 10 10 9 9 8 8 8 7 7 7 6 6 6 7 9 10 11 13 15 17 19 21
47 45 43 42 38 35 34 33 32 29 26 24 22 20 19 18 16 15 15 13 12 11 10 10 9 8 8 7 7 7 6 6 6 7 8 9 10 12 13 15 17 19 21
46 44 42 41 39 36 34 32 31 29 27 25 23 22 20 18 17 16 15 14 13 12 11 10 10 9 8 7 7 7 7 7 8 8 9 10 11 12 13 15 17 19 21
46 44 41 40 38 36 34 32 31 30 28 26 25 23 21 19 18 17 15 14 14 13 12 11 11 10 9 9 9 9 9 9 9 10 10 11 11 12 14 15 17 19 21
47 45 42 40 39 38 34 33 31 30 29 28 26 24 23 21 19 17 16 15 14 14 13 12 12 11 11 11 11 11 11 11 12 12 12 12 12 13 14 14 16 18 20
49 46 45 43 41 39 35 32 31 30 30 29 28 26 24 22 20 19 17 16 16 15 15 14 13 13 13 13 13 13 13 13 13 13 13 13 13 14 14 14 15 17 20

GEFSMW_500_meanwind_042.txt.gz
Wind_Speed
30 30 31 32 34 35 35 36 35 37 37 35 35 35 36 37 38 38 39 38 38 38 39 38 38 38 38 38 37 37 37 37 36 36 35 34 34 34 35 35 34 34 34
28 28 30 32 34 36 37 39 39 38 38 39 37 37 37 37 38 39 39 39 39 40 40 40 40 40 40 40 37 36 36 37 37 37 35 33 33 34 35 35 34 34 33
25 27 31 33 34 35 37 40 39 39 38 38 38 38 38 38 38 38 39 39 40 41 41 41 41 41 41 41 40 39 38 37 38 37 35 34 33 34 34 34 33 33 33
26 29 31 32 33 34 35 37 37 37 38 38 39 39 39 38 38 39 39 40 41 41 41 41 42 41 41 41 40 40 39 39 38 37 36 35 35 34 32 32 33 33 33
26 28 29 30 31 32 34 35 36 37 37 37 38 38 38 38 38 38 39 39 40 40 41 42 42 42 42 41 41 41 41 40 39 39 38 37 36 34 32 31 32 32 32
25 27 29 30 31 33 34 35 37 38 38 39 39 39 39 38 38 38 38 39 39 40 41 42 42 42 43 43 43 43 43 43 42 42 41 39 38 36 34 32 31 31 32
27 29 30 30 31 32 34 36 36 37 38 39 40 40 41 40 40 39 39 39 40 40 41 43 43 43 44 44 45 45 45 45 44 43 42 41 40 37 35 33 32 31 31
28 28 28 28 29 32 34 35 36 37 37 38 39 40 41 41 42 42 42 42 42 42 43 44 44 44 44 45 45 46 45 45 43 43 42 41 39 37 35 33 32 31 30
26 27 29 31 33 34 35 36 36 37 37 38 39 40 41 41 42 42 43 43 44 44 44 44 44 44 45 44 44 43 42 42 42 41 40 39 37 35 33 33 32 31 31
30 32 33 34 35 35 36 38 38 37 37 37 38 38 40 40 41 42 42 43 43 43 43 43 43 43 42 41 40 39 39 39 38 37 37 36 35 33 31 30 29 28 28
33 34 34 35 35 36 38 39 39 39 38 38 37 37 37 38 39 40 40 41 41 41 41 40 40 40 38 37 36 36 35 34 34 33 32 31 31 29 28 28 26 25 24
35 36 37 37 37 37 38 39 39 39 39 38 37 36 35 36 37 37 38 38 38 37 36 36 36 35 34 33 32 31 32 32 30 29 29 29 29 29 28 27 25 24 23
37 38 39 39 39 38 38 39 39 39 39 38 37 35 34 34 35 35 35 35 34 33 32 31 31 30 30 29 28 28 28 27 26 25 25 26 26 26 25 24 24 23 22
40 41 41 42 42 41 40 40 39 39 39 38 37 35 34 33 34 33 33 32 30 28 28 27 27 26 26 25 24 24 24 23 24 24 23 24 24 24 22 22 22 22 21
43 44 45 45 45 44 44 42 41 40 39 38 37 35 34 33 32 31 30 29 27 26 24 24 23 22 21 21 20 20 21 22 23 23 23 23 22 22 21 20 20 19 18
47 48 49 49 49 48 47 45 43 41 40 38 36 35 34 33 31 29 28 27 25 23 21 20 19 17 17 17 18 18 18 19 21 21 20 20 19 19 18 18 17 17 16
53 53 54 53 52 51 50 49 46 43 41 39 37 35 33 32 30 28 26 25 23 21 20 17 16 15 15 15 15 14 16 16 15 17 17 17 16 16 15 14 14 14 13
58 58 58 58 57 55 53 51 49 45 42 40 37 35 33 31 30 27 25 23 21 19 17 15 15 14 13 13 13 13 13 13 13 14 14 13 12 12 12 12 11 11 12
62 62 62 62 61 60 57 54 51 47 43 40 38 35 33 31 29 26 24 21 20 17 15 13 12 12 11 10 10 10 11 12 12 12 11 11 10 10 9 9 9 9 9
64 64 64 64 63 61 59 55 51 48 44 40 38 35 32 31 29 26 23 21 19 17 15 13 11 10 9 9 8 9 10 11 10 10 10 10 10 9 9 9 8 8 8
68 68 67 66 65 62 60 56 52 49 46 42 39 36 33 31 28 25 23 21 19 17 15 13 11 10 9 9 8 9 9 9 9 9 10 9 9 9 8 8 8 8 8
70 70 69 66 63 60 58 54 52 49 46 43 40 38 35 31 28 25 24 22 20 18 16 14 12 10 9 8 9 9 9 9 8 9 9 9 9 8 8 8 7 8 8
69 67 64 60 57 55 54 52 50 48 47 45 42 39 36 32 29 26 24 22 21 19 16 15 13 11 10 10 10 10 10 9 9 9 9 9 9 9 8 8 8 8 8
61 57 55 53 51 50 50 49 48 47 47 47 43 40 36 33 31 28 25 23 21 19 18 16 15 14 12 12 12 12 11 11 10 10 10 10 9 9 9 9 9 9 9
50 48 48 47 46 45 45 46 47 46 45 44 43 41 38 35 32 29 27 25 23 21 19 18 17 16 15 15 15 14 13 12 11 11 11 10 10 10 10 10 10 10 9
43 45 45 44 43 43 41 42 43 44 43 43 44 41 38 36 34 31 29 27 25 23 21 20 19 18 17 16 16 15 14 13 12 12 12 11 11 11 11 11 11 10 11